ROMMA est une association bénévole à but non lucratif. Votre soutien est indispensable : ADHERER à ROMMA ou FAIRE un DON

Lélex - (01, Ain)

Jura Gessien (910 m)   Longitude: 5° 56' E   Latitude: 46° 18' N Station partenaire n°103
 

Détail journalier du     <<     >>

Température Precipitation Humidité Vent Dir Rafale Dir. rafale Ensol.
Heure (°C) (mm) (%) (km/h) (km/h) (min)
01:00 3.90871ENE11NE0
02:00 3.80872NE11ENE0
03:00 3.108906NE0
04:00 3.30901NE6NE0
05:00 4.20871ENE6NNE0
06:00 4.408705NE0
07:00 4.80871NE5NE0
08:00 4.608905NNE0
09:00 6.70822NE10E10
10:00 7.50797NE19ENE0
11:00 8.107511NNE26NNE5
12:00 9.906812NNE29NNE25
13:00 11.406012NNE31NNE30
14:00 10.906117NNE35NNE30
15:00 10.905916NNE34NNE25
16:00 10.406116NNE37NNE0
17:00 10.505718NNE40NNE0
18:00 9.906015NNE29NNE0
19:00 8.606714NNE27ENE0
20:00 7.007110NNE32NE5
21:00 5.90735ENE16ENE0
22:00 5.40733E13E0
23:00 5.20743SE8SSE0
minuit 4.50783E11ESE0

Graphique du 11-04-2019

 

Serveur OMMA